Time,TemperatureF,DewpointF,PressureIn,WindDirection,WindDirectionDegrees,WindSpeedMPH,WindSpeedGustMPH,Humidity,HourlyPrecipIn,Conditions,Clouds,dailyrainin,SoftwareType,DateUTC
2013-12-01 00:01:00,30.4,23.0,30.09,NNW,329,5.0,8.0,73,0.00,,,0.00,weatherlink.com 1.10,2013-12-01 06:01:00,
2013-12-01 00:16:00,30.2,23.0,30.09,NNW,334,4.0,9.0,73,0.00,,,0.00,weatherlink.com 1.10,2013-12-01 06:16:00,
2013-12-01 00:31:00,30.0,23.0,30.08,NNW,334,4.0,6.0,74,0.00,,,0.00,weatherlink.com 1.10,2013-12-01 06:31:00,
2013-12-01 00:46:00,29.8,22.0,30.09,NNW,331,3.0,6.0,74,0.00,,,0.00,weatherlink.com 1.10,2013-12-01 06:46:00,
2013-12-01 01:01:00,29.6,22.0,30.08,NNW,329,3.0,8.0,74,0.00,,,0.00,weatherlink.com 1.10,2013-12-01 07:01:00,
2013-12-01 01:16:00,29.4,22.0,30.08,NNW,331,2.0,8.0,74,0.00,,,0.00,weatherlink.com 1.10,2013-12-01 07:16:00,
2013-12-01 01:31:00,29.3,22.0,30.07,NNW,333,5.0,6.0,74,0.00,,,0.00,weatherlink.com 1.10,2013-12-01 07:31:00,
2013-12-01 01:46:00,29.2,22.0,30.09,NW,319,4.0,9.0,75,0.00,,,0.00,weatherlink.com 1.10,2013-12-01 07:46:00,
2013-12-01 02:01:00,28.9,22.0,30.09,NW,323,5.0,10.0,75,0.00,,,0.00,weatherlink.com 1.10,2013-12-01 08:01:00,
2013-12-01 02:16:00,28.7,22.0,30.09,NNW,330,3.0,9.0,76,0.00,,,0.00,weatherlink.com 1.10,2013-12-01 08:16:00,
2013-12-01 02:31:00,28.5,22.0,30.08,NNW,330,1.0,6.0,76,0.00,,,0.00,weatherlink.com 1.10,2013-12-01 08:31:00,
2013-12-01 02:46:00,28.1,21.0,30.09,NW,326,4.0,8.0,76,0.00,,,0.00,weatherlink.com 1.10,2013-12-01 08:46:00,
2013-12-01 03:01:00,27.7,21.0,30.08,NNW,327,1.0,5.0,77,0.00,,,0.00,weatherlink.com 1.10,2013-12-01 09:01:00,
2013-12-01 03:16:00,27.2,21.0,30.09,NNW,330,3.0,5.0,77,0.00,,,0.00,weatherlink.com 1.10,2013-12-01 09:16:00,
2013-12-01 03:32:00,26.9,21.0,30.08,NNW,327,3.0,6.0,78,0.00,,,0.00,weatherlink.com 1.10,2013-12-01 09:32:00,
2013-12-01 03:47:00,26.5,21.0,30.08,NNW,327,1.0,5.0,79,0.00,,,0.00,weatherlink.com 1.10,2013-12-01 09:47:00,
2013-12-01 04:02:00,26.1,20.0,30.08,NNW,327,0.0,3.0,79,0.00,,,0.00,weatherlink.com 1.10,2013-12-01 10:02:00,
2013-12-01 04:17:00,25.6,20.0,30.09,NNW,327,0.0,1.0,79,0.00,,,0.00,weatherlink.com 1.10,2013-12-01 10:17:00,
2013-12-01 04:32:00,25.1,20.0,30.09,NNW,327,0.0,2.0,80,0.00,,,0.00,weatherlink.com 1.10,2013-12-01 10:32:00,
2013-12-01 04:47:00,24.7,20.0,30.08,NNW,327,2.0,2.0,81,0.00,,,0.00,weatherlink.com 1.10,2013-12-01 10:47:00,
2013-12-01 05:02:00,24.7,20.0,30.09,NNW,327,0.0,5.0,81,0.00,,,0.00,weatherlink.com 1.10,2013-12-01 11:02:00,
2013-12-01 05:17:00,24.5,19.0,30.10,NNW,329,3.0,6.0,81,0.00,,,0.00,weatherlink.com 1.10,2013-12-01 11:17:00,
2013-12-01 05:32:00,24.0,19.0,30.10,NNW,328,4.0,6.0,81,0.00,,,0.00,weatherlink.com 1.10,2013-12-01 11:32:00,
2013-12-01 05:47:00,23.8,19.0,30.09,NW,326,1.0,8.0,81,0.00,,,0.00,weatherlink.com 1.10,2013-12-01 11:47:00,
2013-12-01 06:02:00,23.5,19.0,30.09,NNW,327,2.0,4.0,82,0.00,,,0.00,weatherlink.com 1.10,2013-12-01 12:02:00,
2013-12-01 06:17:00,23.4,19.0,30.08,NNW,327,1.0,2.0,82,0.00,,,0.00,weatherlink.com 1.10,2013-12-01 12:17:00,
2013-12-01 06:32:00,23.6,19.0,30.08,NW,326,1.0,3.0,83,0.00,,,0.00,weatherlink.com 1.10,2013-12-01 12:32:00,
2013-12-01 06:47:00,23.6,19.0,30.09,NW,326,1.0,4.0,82,0.00,,,0.00,weatherlink.com 1.10,2013-12-01 12:47:00,
2013-12-01 07:02:00,23.3,19.0,30.10,NW,326,1.0,5.0,83,0.00,,,0.00,weatherlink.com 1.10,2013-12-01 13:02:00,
2013-12-01 07:17:00,23.5,19.0,30.10,NW,325,2.0,6.0,83,0.00,,,0.00,weatherlink.com 1.10,2013-12-01 13:17:00,
2013-12-01 07:32:00,23.4,19.0,30.11,NW,325,1.0,4.0,83,0.00,,,0.00,weatherlink.com 1.10,2013-12-01 13:32:00,
2013-12-01 07:47:00,23.0,19.0,30.11,NW,325,2.0,4.0,83,0.00,,,0.00,weatherlink.com 1.10,2013-12-01 13:47:00,
2013-12-01 08:02:00,23.1,19.0,30.12,NW,325,0.0,5.0,83,0.00,,,0.00,weatherlink.com 1.10,2013-12-01 14:02:00,
2013-12-01 08:17:00,23.5,19.0,30.11,NW,325,2.0,5.0,83,0.00,,,0.00,weatherlink.com 1.10,2013-12-01 14:17:00,
2013-12-01 08:32:00,24.2,20.0,30.10,North,351,2.0,5.0,83,0.00,,,0.00,weatherlink.com 1.10,2013-12-01 14:32:00,
2013-12-01 08:47:00,25.3,21.0,30.11,NNW,345,1.0,8.0,83,0.00,,,0.00,weatherlink.com 1.10,2013-12-01 14:47:00,
2013-12-01 09:02:00,26.1,21.0,30.10,North,10,3.0,6.0,82,0.00,,,0.00,weatherlink.com 1.10,2013-12-01 15:02:00,
2013-12-01 09:17:00,26.6,22.0,30.10,NNE,32,0.0,5.0,82,0.00,,,0.00,weatherlink.com 1.10,2013-12-01 15:17:00,
2013-12-01 09:32:00,27.7,23.0,30.10,NNE,32,1.0,2.0,81,0.00,,,0.00,weatherlink.com 1.10,2013-12-01 15:32:00,
2013-12-01 09:47:00,28.3,23.0,30.10,NNE,32,0.0,4.0,80,0.00,,,0.00,weatherlink.com 1.10,2013-12-01 15:47:00,
2013-12-01 10:02:00,29.6,24.0,30.09,NNE,32,0.0,3.0,78,0.00,,,0.00,weatherlink.com 1.10,2013-12-01 16:02:00,
2013-12-01 10:17:00,30.6,24.0,30.10,NNE,32,0.0,3.0,77,0.00,,,0.00,weatherlink.com 1.10,2013-12-01 16:17:00,
2013-12-01 10:32:00,31.4,24.0,30.10,NNE,32,4.0,5.0,75,0.00,,,0.00,weatherlink.com 1.10,2013-12-01 16:32:00,
2013-12-01 10:47:00,32.6,25.0,30.10,NNE,32,0.0,5.0,73,0.00,,,0.00,weatherlink.com 1.10,2013-12-01 16:47:00,
2013-12-01 11:02:00,33.4,25.0,30.08,NNE,32,0.0,4.0,70,0.00,,,0.00,weatherlink.com 1.10,2013-12-01 17:02:00,
2013-12-01 11:17:00,33.5,25.0,30.08,NNE,32,0.0,4.0,70,0.00,,,0.00,weatherlink.com 1.10,2013-12-01 17:17:00,
2013-12-01 11:32:00,34.4,25.0,30.07,NNE,32,0.0,3.0,68,0.00,,,0.00,weatherlink.com 1.10,2013-12-01 17:32:00,
2013-12-01 11:47:00,34.4,25.0,30.07,NNE,32,2.0,4.0,68,0.00,,,0.00,weatherlink.com 1.10,2013-12-01 17:47:00,
2013-12-01 12:03:00,35.0,25.0,30.06,NNE,32,0.0,3.0,67,0.00,,,0.00,weatherlink.com 1.10,2013-12-01 18:03:00,
2013-12-01 12:18:00,35.7,25.0,30.05,NNE,32,2.0,3.0,66,0.00,,,0.00,weatherlink.com 1.10,2013-12-01 18:18:00,
2013-12-01 12:33:00,36.1,25.0,30.05,NNE,32,0.0,1.0,65,0.00,,,0.00,weatherlink.com 1.10,2013-12-01 18:33:00,
2013-12-01 12:48:00,36.1,25.0,30.04,NNE,32,0.0,2.0,64,0.00,,,0.00,weatherlink.com 1.10,2013-12-01 18:48:00,
2013-12-01 13:03:00,35.7,25.0,30.03,NNE,32,0.0,2.0,65,0.00,,,0.00,weatherlink.com 1.10,2013-12-01 19:03:00,
2013-12-01 13:18:00,35.7,25.0,30.03,NNE,32,0.0,2.0,65,0.00,,,0.00,weatherlink.com 1.10,2013-12-01 19:18:00,
2013-12-01 13:33:00,35.8,25.0,30.02,NNE,32,0.0,3.0,65,0.00,,,0.00,weatherlink.com 1.10,2013-12-01 19:33:00,
2013-12-01 13:48:00,36.0,25.0,30.01,NNE,32,0.0,2.0,65,0.00,,,0.00,weatherlink.com 1.10,2013-12-01 19:48:00,
2013-12-01 14:03:00,36.1,25.0,30.01,NNE,32,0.0,2.0,64,0.00,,,0.00,weatherlink.com 1.10,2013-12-01 20:03:00,
2013-12-01 14:18:00,36.0,25.0,30.01,NNE,32,0.0,1.0,65,0.00,,,0.00,weatherlink.com 1.10,2013-12-01 20:18:00,
2013-12-01 14:33:00,36.2,25.0,30.00,NNE,32,0.0,2.0,65,0.00,,,0.00,weatherlink.com 1.10,2013-12-01 20:33:00,
2013-12-01 14:48:00,36.0,25.0,29.99,NNE,32,0.0,3.0,64,0.00,,,0.00,weatherlink.com 1.10,2013-12-01 20:48:00,
2013-12-01 15:03:00,36.0,25.0,29.98,NNE,32,0.0,3.0,65,0.00,,,0.00,weatherlink.com 1.10,2013-12-01 21:03:00,
2013-12-01 15:18:00,36.0,25.0,29.98,NNE,32,0.0,3.0,65,0.00,,,0.00,weatherlink.com 1.10,2013-12-01 21:18:00,
2013-12-01 15:33:00,36.1,25.0,29.98,NNE,32,0.0,2.0,65,0.00,,,0.00,weatherlink.com 1.10,2013-12-01 21:33:00,
2013-12-01 15:48:00,35.9,25.0,29.98,NNE,32,0.0,2.0,65,0.00,,,0.00,weatherlink.com 1.10,2013-12-01 21:48:00,
2013-12-01 16:03:00,35.8,25.0,29.97,NNE,32,0.0,2.0,65,0.00,,,0.00,weatherlink.com 1.10,2013-12-01 22:03:00,
2013-12-01 16:18:00,35.6,25.0,29.98,NNE,32,0.0,0.0,66,0.00,,,0.00,weatherlink.com 1.10,2013-12-01 22:18:00,
2013-12-01 16:33:00,35.4,25.0,29.98,NNE,32,0.0,1.0,66,0.00,,,0.00,weatherlink.com 1.10,2013-12-01 22:33:00,
2013-12-01 16:48:00,35.2,25.0,29.98,NNE,32,0.0,0.0,66,0.00,,,0.00,weatherlink.com 1.10,2013-12-01 22:48:00,
2013-12-01 17:03:00,35.0,25.0,29.97,NNE,32,0.0,0.0,67,0.00,,,0.00,weatherlink.com 1.10,2013-12-01 23:03:00,
2013-12-01 17:18:00,34.7,25.0,29.97,NNE,32,0.0,0.0,68,0.00,,,0.00,weatherlink.com 1.10,2013-12-01 23:18:00,
2013-12-01 17:33:00,34.4,25.0,29.97,NNE,32,0.0,0.0,69,0.00,,,0.00,weatherlink.com 1.10,2013-12-01 23:33:00,
2013-12-01 17:48:00,34.4,25.0,29.96,NNE,32,0.0,1.0,69,0.00,,,0.00,weatherlink.com 1.10,2013-12-01 23:48:00,
2013-12-01 18:03:00,34.3,25.0,29.96,NNE,32,0.0,1.0,69,0.00,,,0.00,weatherlink.com 1.10,2013-12-02 00:03:00,
2013-12-01 18:18:00,34.2,25.0,29.96,NNE,32,0.0,0.0,70,0.00,,,0.00,weatherlink.com 1.10,2013-12-02 00:18:00,
2013-12-01 18:33:00,34.0,26.0,29.96,NNE,32,0.0,0.0,71,0.00,,,0.00,weatherlink.com 1.10,2013-12-02 00:33:00,
2013-12-01 18:48:00,33.9,25.0,29.95,NNE,32,0.0,0.0,71,0.00,,,0.00,weatherlink.com 1.10,2013-12-02 00:48:00,
2013-12-01 19:03:00,33.6,25.0,29.95,NNE,32,0.0,1.0,71,0.00,,,0.00,weatherlink.com 1.10,2013-12-02 01:03:00,
2013-12-01 19:18:00,33.5,25.0,29.94,NNE,32,0.0,0.0,71,0.00,,,0.00,weatherlink.com 1.10,2013-12-02 01:18:00,
2013-12-01 19:33:00,33.5,25.0,29.93,NNE,32,0.0,0.0,72,0.00,,,0.00,weatherlink.com 1.10,2013-12-02 01:33:00,
2013-12-01 19:48:00,32.9,25.0,29.93,NNE,32,0.0,1.0,72,0.00,,,0.00,weatherlink.com 1.10,2013-12-02 01:48:00,
2013-12-01 20:03:00,32.7,25.0,29.92,NNE,32,0.0,1.0,73,0.00,,,0.00,weatherlink.com 1.10,2013-12-02 02:03:00,
2013-12-01 20:18:00,32.4,25.0,29.91,NNE,32,1.0,2.0,73,0.00,,,0.00,weatherlink.com 1.10,2013-12-02 02:18:00,
2013-12-01 20:33:00,31.9,25.0,29.91,NNE,32,0.0,1.0,74,0.00,,,0.00,weatherlink.com 1.10,2013-12-02 02:33:00,
2013-12-01 20:48:00,31.6,25.0,29.91,NNE,32,0.0,1.0,75,0.00,,,0.00,weatherlink.com 1.10,2013-12-02 02:48:00,
2013-12-01 21:03:00,31.2,24.0,29.90,NNE,32,1.0,4.0,75,0.00,,,0.00,weatherlink.com 1.10,2013-12-02 03:03:00,
2013-12-01 21:18:00,30.4,24.0,29.90,NNE,32,0.0,2.0,76,0.00,,,0.00,weatherlink.com 1.10,2013-12-02 03:18:00,
2013-12-01 21:33:00,29.7,23.0,29.90,NNE,32,1.0,3.0,77,0.00,,,0.00,weatherlink.com 1.10,2013-12-02 03:33:00,
2013-12-01 21:49:00,29.0,23.0,29.89,NNE,32,0.0,2.0,78,0.00,,,0.00,weatherlink.com 1.10,2013-12-02 03:49:00,
2013-12-01 22:04:00,28.4,23.0,29.89,NNE,32,0.0,1.0,80,0.00,,,0.00,weatherlink.com 1.10,2013-12-02 04:04:00,
2013-12-01 22:19:00,27.6,23.0,29.88,NNE,32,0.0,2.0,81,0.00,,,0.00,weatherlink.com 1.10,2013-12-02 04:19:00,
2013-12-01 22:34:00,27.6,23.0,29.88,NNE,32,0.0,1.0,81,0.00,,,0.00,weatherlink.com 1.10,2013-12-02 04:34:00,
2013-12-01 22:49:00,27.3,23.0,29.88,NNE,32,0.0,0.0,82,0.00,,,0.00,weatherlink.com 1.10,2013-12-02 04:49:00,
2013-12-01 23:04:00,27.2,23.0,29.88,NNE,32,0.0,1.0,83,0.00,,,0.00,weatherlink.com 1.10,2013-12-02 05:04:00,
2013-12-01 23:19:00,27.2,23.0,29.87,NNE,32,0.0,3.0,83,0.00,,,0.00,weatherlink.com 1.10,2013-12-02 05:19:00,
2013-12-01 23:34:00,27.3,23.0,29.87,NNE,32,0.0,3.0,83,0.00,,,0.00,weatherlink.com 1.10,2013-12-02 05:34:00,
2013-12-01 23:49:00,27.0,23.0,29.86,NNE,32,0.0,1.0,83,0.00,,,0.00,weatherlink.com 1.10,2013-12-02 05:49:00,